Location: *
(45.0978°N, 26.5206°E)
Time: 08:35:50
(UTC+00:00)

Daily predictions for brighter satellites

Satellite Brightness Start Highest point End
(mag) Time Altitude Azimuth Time Altitude Azimuth Time Altitude Azimuth
Cosmos 2184 Rocket 4.2 16:27:09 10° N 16:33:27 87° W 16:39:46 10° S
Cosmos 1842 4.1 16:30:20 10° NNW 16:34:14 58° W 16:38:05 10° S
Cosmos 405 Rocket 3.9 16:32:22 10° SE 16:35:12 21° E 16:38:04 10° NE
Lacrosse 5 3.8 16:36:36 10° ESE 16:36:57 10° ESE 16:37:18 10° ESE
Aureole 1 Rocket 4.2 16:33:12 10° NNW 16:37:39 45° WSW 16:41:07 10° S
CZ-4 R/B 1.6 16:34:15 10° S 16:38:09 75° WSW 16:42:10 10° NNW
Cosmos 2237 Rocket 2.3 16:33:02 10° NNW 16:38:42 60° ENE 16:44:19 10° SE
CSL-04 Debris 4.2 16:35:05 10° SSE 16:40:30 89° ENE 16:45:57 10° NNW
Cosmos 2333 Rocket 3.2 16:38:32 10° NW 16:44:03 52° WSW 16:49:35 10° S
Cosmos 1441 Rocket 3.4 16:42:02 10° SSW 16:45:48 77° W 16:49:34 10° N
Lacrosse 5 rocket 1.0 16:42:58 10° SW 16:46:33 64° SE 16:50:16 10° NE
Cosmos 1544 3.3 16:44:46 10° SSW 16:48:22 76° W 16:52:00 10° N
FREGAT/IRIS 4.1 16:46:37 10° ESE 16:48:35 18° ENE 16:50:35 10° NNE
Cosmos 1980 3.7 16:43:42 10° NNW 16:49:24 77° ENE 16:55:02 10° SSE
COSMO-SKYMED 1 3.3 16:45:27 10° N 16:49:44 58° WNW 16:54:00 10° SSW
Nadezhda 1 Rocket 3.9 16:44:04 10° S 16:50:07 85° E 16:56:16 10° N
Cosmos 1295 Rocket 4.5 16:47:19 10° N 16:53:26 63° ENE 16:59:27 10° SSE
Cosmos 1437 Rocket 4.2 16:50:43 10° NNE 16:53:29 19° ENE 16:55:47 12° ESE
Meteor 1-15 Rocket 4.4 16:50:37 10° SSE 16:56:13 52° E 17:01:56 10° NNE
Okean 1-7 Rocket 3.9 16:54:42 10° N 16:59:01 45° ENE 17:03:19 10° SSE
Cosmos 1939 Rocket 2.7 16:57:06 10° SSE 17:00:54 67° ENE 17:04:46 10° N
Envisat 4.5 16:56:10 10° SSW 17:00:57 41° W 17:05:46 10° NNW
Cosmos 1371 Rocket 4.0 16:58:47 10° SSW 17:04:06 80° ESE 17:09:29 10° NNE
GEOS 3 Rocket 4.3 17:00:33 13° ESE 17:04:44 38° NE 17:09:28 10° NNW
MONITOR-E 4.3 17:02:27 10° SSE 17:05:07 42° ENE 17:07:48 10° N
ATLAS CENTAUR R/B 3.5 17:03:47 10° SE 17:05:19 13° ESE 17:05:19 13° ESE
EO 1 Delta rocket 4.5 17:00:15 10° SSE 17:06:10 50° ENE 17:11:04 10° N
Cosmos 1455 Rocket 3.6 17:02:08 10° SSE 17:06:11 36° E 17:10:17 10° NNE
Cosmos 2219 Rocket 3.9 17:01:13 10° NW 17:06:13 35° WSW 17:11:15 10° S
Cosmos 1544 Rocket 4.4 17:02:31 10° SSE 17:06:23 30° E 17:10:16 10° NNE
PSLV R/B 3.7 17:04:40 10° WSW 17:07:07 32° S 17:08:28 20° SE
SL-8 R/B 4.0 17:04:32 10° WNW 17:09:17 59° N 17:13:02 16° E
Cosmos 1023 Rocket 4.4 17:04:38 10° NNW 17:09:47 68° ENE 17:14:51 10° SSE
Cosmos 1805 4.3 17:07:13 10° SE 17:10:22 24° E 17:13:32 10° NE
SPOT 3 Rocket 4.2 17:08:01 11° SE 17:12:25 35° ENE 17:17:04 10° N
SL-16 R/B 2.6 17:07:40 10° NNW 17:13:08 45° ENE 17:17:34 15° SE
Meteor 1-4 Rocket 2.4 17:10:05 10° N 17:13:36 65° ENE 17:17:02 10° SSE
Cosmos 676 Rocket 4.1 17:08:56 10° NNW 17:14:09 59° ENE 17:19:16 10° SE
Cosmos 1452 Rocket 4.2 17:10:02 10° SSE 17:14:35 31° E 17:19:09 10° NE
ADEOS Rocket 4.2 17:08:02 10° NNE 17:14:38 31° E 17:21:20 10° SSE
Cosmos 1707 3.4 17:14:23 10° NNW 17:18:15 58° W 17:22:05 10° S
NOAA 11 4.3 17:15:40 10° S 17:21:10 80° WSW 17:26:40 10° NNW
Meteor 2-17 Rocket 4.4 17:15:49 10° N 17:21:52 69° E 17:27:53 10° SSE
ARGOS 3.9 17:20:24 18° ESE 17:23:34 33° ENE 17:28:20 10° N
Cosmos 614 Rocket 4.4 17:18:38 10° NNW 17:23:48 66° WSW 17:28:54 10° S
Cosmos 1626 Rocket 4.4 17:21:47 10° NNE 17:25:35 29° ENE 17:26:55 24° ESE
CZ-2C R/B 4.4 17:24:45 20° E 17:26:42 24° ENE 17:31:08 10° N
Cosmos 2082 3.7 17:21:44 10° S 17:27:19 57° ESE 17:32:55 10° NNE
Cosmos 1190 Rocket 4.5 17:24:24 10° NNW 17:29:39 64° WSW 17:34:48 10° S
USA 186 2.1 17:29:30 26° SE 17:31:06 50° ENE 17:34:25 10° N
Cosmos 2227 Rocket 2.4 17:34:49 10° SSW 17:40:28 76° WNW 17:46:11 10° NNE
H-2A R/B 2.3 17:38:07 26° SE 17:40:34 45° ENE 17:45:25 10° N
Meteor 2-5 Rocket 3.7 17:35:01 10° N 17:40:54 79° E 17:46:51 10° SSE
Meteor 1-22 Rocket 4.5 17:35:30 10° SSE 17:41:22 53° E 17:47:16 10° NNE
USA 234 4.3 17:35:35 10° NE 17:41:37 41° NNW 17:47:41 10° W
ASTEX 1 3.5 17:37:34 10° N 17:42:28 79° W 17:47:21 10° SSW
Ariane Rocket 3.9 17:38:16 10° S 17:43:11 50° W 17:48:09 10° NNW
Cosmos 1850 Rocket 4.3 17:42:24 10° N 17:47:24 46° ENE 17:49:04 34° ESE
RESURS DK-1 2.8 17:44:36 10° NNW 17:48:32 41° ENE 17:49:04 39° ENE
Cosmos 1602 Rocket 3.9 17:44:26 10° N 17:48:33 40° ENE 17:48:59 39° E
Cosmos 2181 Rocket 4.0 17:42:39 10° S 17:48:56 86° W 17:55:22 10° N
Cosmos 2297 Rocket 2.7 17:44:45 10° SW 17:50:20 61° WNW 17:55:58 10° NNE
Resurs 1-3 4.0 17:52:22 39° E 17:52:48 40° ENE 17:56:55 10° N
ISS -2.4 17:49:45 10° W 17:52:51 34° NNW 17:54:02 26° NNE
SL-4 R/B 3.9 17:50:17 10° SSW 17:51:14 15° S 17:51:14 15° S
Cosmos 864 Rocket 4.4 17:50:55 10° N 17:57:11 83° E 18:03:11 12° S
ERBS 2.9 17:54:55 10° WNW 17:58:13 49° SW 17:58:41 45° SSW
Cosmos 2366 rocket 4.0 17:52:56 10° N 17:59:20 89° ENE 18:05:41 10° S
Cosmos 1766 3.2 17:57:30 10° S 18:01:26 82° W 18:05:22 10° N
SJ-6B 2.9 18:00:10 29° S 18:02:11 78° WSW 18:06:15 10° NNW
Cosmos 2218 Rocket 4.1 17:56:38 10° N 18:03:01 82° W 18:09:17 10° S
Cosmos 1420 Rocket 4.0 17:57:52 10° SSW 18:03:10 85° WNW 18:08:33 10° NNE
Cosmos 1821 Rocket 4.3 18:00:21 10° N 18:06:07 41° ENE 18:06:56 39° E
SL-8 Rocket 4.3 18:00:14 10° NNW 18:06:20 65° W 18:12:23 10° S
Cosmos 1943 4.1 18:05:58 10° N 18:11:00 31° NE 18:11:25 30° ENE
Resurs 01 Rocket 2.0 18:12:35 47° NE 18:12:35 47° NE 18:16:31 10° N
Cosmos 1674 3.2 18:09:34 10° NNW 18:13:13 57° W 18:14:12 41° SSW
DELTA 2 R/B (1) 3.9 18:09:12 10° WSW 18:14:35 48° S 18:15:28 44° SSE
Lacrosse 5 1.8 18:14:00 10° SSW 18:18:41 59° SSE 18:18:41 59° SSE
Spot 2 Rocket 4.3 18:20:17 35° NE 18:20:17 35° NE 18:24:15 10° N
Cosmos 1741 Rocket 3.9 18:14:53 10° NNW 18:20:15 82° ENE 18:21:20 58° SSE
Cosmos 2237 Rocket 4.4 18:18:00 10° NW 18:22:16 22° W 18:26:30 10° SSW
Lacrosse 5 rocket 3.2 18:22:54 10° W 18:26:00 25° NNW 18:27:27 20° N
Cosmos 1437 Rocket 4.4 18:26:27 10° NNW 18:29:49 31° W 18:31:13 24° SW
SL-24 R/B 4.2 18:34:11 85° E 18:34:12 85° ENE 18:39:26 10° NNW
BREEZE M DEB (TANK) 3.0 18:33:35 10° WNW 18:35:55 53° NNW 18:35:55 53° NNW
CZ-4C R/B 4.3 18:36:28 10° NNW 18:41:42 23° NNE 18:44:01 20° NE
GEOS 3 Rocket 4.3 18:41:41 40° SSW 18:42:43 45° WSW 18:47:38 10° NW
ATLAS CENTAUR R/B 3.2 18:39:30 10° SW 18:41:43 27° SW 18:41:43 27° SW
CZ-2C R/B 4.3 18:41:05 10° NNE 18:43:11 22° NE 18:43:11 22° NE
Meteor 1-21 Rocket 4.4 18:41:52 10° N 18:47:20 64° NE 18:47:20 64° NE
Cosmos 1626 4.2 18:44:44 10° N 18:46:14 23° NNW 18:46:14 23° NNW
SL-8 R/B 4.3 18:47:11 10° WNW 18:50:59 54° W 18:50:59 54° W
SL-08 RB Rocket 4.3 18:52:44 54° W 18:52:44 54° W 18:57:14 10° NNW
Cosmos 1603 3.7 18:47:31 10° NNW 18:52:50 75° NNE 18:52:50 75° NNE
SL-16 R/B 3.8 18:52:09 10° NW 18:57:02 30° WSW 18:59:29 22° SW
Cosmos 1934 Rocket 4.1 18:53:48 10° N 18:59:03 59° NE 18:59:03 59° NE
ADEOS Rocket 3.9 18:53:01 10° N 19:00:24 62° WNW 19:08:02 10° SSW
ARGOS 4.4 19:01:55 29° SW 19:03:44 37° W 19:08:44 10° NNW
CZ-2C R/B 3.7 19:05:49 53° WSW 19:06:08 54° W 19:11:39 10° NNW
H-2A R/B 3.9 19:18:45 20° WSW 19:20:14 23° W 19:24:16 10° NW
Terra 4.2 19:30:12 16° N 19:30:12 16° N 19:31:12 10° N
Cosmos 2263 Rocket 4.5 19:44:54 15° NNE 19:44:54 15° NNE 19:45:53 10° NNE
Resurs 01 Rocket 4.3 19:50:10 16° WNW 19:50:10 16° WNW 19:51:59 10° NW
CZ-4C R/B 3.8 20:24:37 10° NNW 20:29:10 42° NNW 20:29:10 42° NNW
ATLAS 3B R/B 4.5 23:18:48 22° ENE 23:18:48 22° ENE 23:21:18 10° NE
Cosmos 1943 Rocket 4.5 23:35:25 19° NE 23:35:25 19° NE 23:37:02 10° NE
CENTAUR R/B 3.8 23:53:15 36° NE 23:53:15 36° NE 23:57:22 10° NE
